Location: Newark
(21.1200°N, 73.4000°E)
Time: 22:23:48
(UTC+00:00)

Tiros 1 - Visible Passes

Search period start: 17 January 2020 00:00
Search period end: 27 January 2020 00:00
Orbit: 630 x 664 km, 48.4° (Epoch: 17 January)

Date Brightness Start Highest point End Pass type
(mag) Time Alt. Az. Time Alt. Az. Time Alt. Az.
24 Jan 9.2 14:14:25 10° N 14:15:50 15° N 14:15:50 15° N visible
25 Jan 8.7 14:39:22 10° NNW 14:41:40 25° NNW 14:41:40 25° NNW visible
26 Jan 8.8 13:24:34 10° N 13:27:32 16° NE 13:30:02 12° ENE visible
26 Jan 8.8 15:05:14 10° NW 15:07:47 31° WNW 15:07:47 31° WNW visible
